Regional Weather Roundup
Issued by NWS

Home | Current Version | Previous Version | Graphics & Text | Print | Product List | Glossary On
Versions: 1 2 3 4 5 6 7 8 9 10 11 12 13 14 15 16 17 18 19 20 21 22 23 24 25 26 27 28 29 30 31 32 33 34 35 36 37 38 39 40 41 42 43 44 45 46 47 48 49 50
000
ASUS43 KLOT 102308
RWRIL

ILLINOIS REGIONAL WEATHER ROUNDUP
NATIONAL WEATHER SERVICE CHICAGO/ROMEOVILLE IL
500 PM CST WED FEB 10 2016

NOTE: "FAIR" INDICATES FEW OR NO CLOUDS BELOW 12,000 FEET WITH NO
SIGNIFICANT WEATHER AND/OR OBSTRUCTIONS TO VISIBILITY.

* THESE STATIONS ARE NOT UNDER NWS QUALITY CONTROL. THEY ALSO MAY NOT
  REPORT WEATHER SUCH AS PRECIPITATION OR FOG.

ILZ001-002-007-009-015-016-024-110000-
NORTHWEST ILLINOIS

CITY           SKY/WX    TMP DP  RH WIND       PRES   REMARKS
MOLINE         CLOUDY    19   2  47 NW8       30.10R WCI   9
STERLING*      CLOUDY    19   3  49 NW7       30.06R WCI  10
SAVANNA*       CLEAR     18   2  50 W5        30.10R WCI  11
$$

ILZ003-004-008-010-011-017-018-110000-
NORTH CENTRAL ILLINOIS

CITY           SKY/WX    TMP DP  RH WIND       PRES   REMARKS
ROCKFORD       MOCLDY    15   0  51 NW7       30.09R WCI   5
FREEPORT*      CLEAR     12   1  63 W10       30.09R WCI  -2
ROCHELLE*      CLEAR     15   5  63 NW9       30.08R WCI   4
DE KALB*       CLEAR     15   2  57 NW8       30.06R WCI   4
$$

ILZ005-006-012>014-019>023-110000-
NORTHEAST ILLINOIS

CITY           SKY/WX    TMP DP  RH WIND       PRES   REMARKS
CHICAGO-OHARE  MOCLDY    16   2  54 NW12      30.05R WCI   3
CHICAGO-MIDWAY MOCLDY    17   1  49 NW10      30.06R WCI   5
AURORA         CLEAR     17   4  56 NW10      30.07R WCI   5
LANSING*       CLOUDY    18   3  52 NW7       30.06R WCI   8
JOLIET*        CLEAR     19   5  55 NW7       30.08R WCI   9
WAUKEGAN       MOCLDY    13   0  56 NW5       30.06R WCI   5
DUPAGE AIRPORT MOCLDY    15   2  56 N10       30.05R WCI   2
KANKAKEE*      CLOUDY    19   6  57 NW9       30.08R WCI   7
WHEELING       CLOUDY    15   1  53 NW10      30.07R WCI   2
MORRIS*        CLEAR     18   6  59 NW5       30.07R WCI  11
ROMEOVILLE*    CLOUDY    17   4  58 NW10      30.07R WCI   4
NORTHERLY ISL    N/A     18   3  52 W5          N/A  WCI  11
$$

LMZ740>746-110000-
SOUTHERN LAKE MICHIGAN

STATION/POSITION SKY/WX   TEMP    WIND        PRES    VSBY  WAVE
                          AIR SEA DIR/SP/G                  HT/PER
                          (F)     (DEG/KT/KT) (MB)    (MI)  (FT/S)
HARRISON CRIB              18     300/ 11/ 12   N/A
BURNHAM HARBOR             18     320/  8/ 11   N/A
CALUMET HARBOR             17     300/  6/ 11   N/A
BURNS HARBOR               18     290/  9/ 14 1017.6R
MICHIGAN CITY              17     270/ 15/ 17   N/A
$$

ILZ025>027-034>036-040-047-049-050-058-095>099-110000-
WEST-CENTRAL ILLINOIS

CITY           SKY/WX    TMP DP  RH WIND       PRES   REMARKS
QUINCY         CLOUDY    19  14  81 SE5       30.10S WCI  12
GALESBURG*     CLOUDY    18   6  59 W6        30.10R WCI  10
MACOMB*        CLOUDY    19  13  79 W6        30.13R WCI  10
JACKSONVILLE*  FLURRIES  21  16  81 SW6       30.13R WCI  13
PITTSFIELD*    CLOUDY    20  17  85 S3        30.12S
$$

ILZ028>032-037-038-041>044-048-051>054-059>061-110000-
CENTRAL ILLINOIS

CITY           SKY/WX    TMP DP  RH WIND       PRES   REMARKS
PONTIAC        CLEAR     19   9  63 W10       30.10R WCI   8
BLOOMINGTON    CLOUDY    19   5  54 W9        30.09R WCI   8
DECATUR        CLOUDY    20   5  52 W9        30.11R WCI   9
PEORIA         MOCLDY    19   3  49 W8        30.11R WCI   9
LACON*         CLOUDY    19   4  52 NW9       30.10R WCI   7
LINCOLN*       CLOUDY    20   6  54 CALM      30.12R
SPRINGFIELD    CLOUDY    20  14  77 W10       30.13R WCI   9
TAYLORVILLE    FLURRIES  19  16  86 SW8       30.13R WCI   9
$$

ILZ033-039-045-046-055>057-062-063-110000-
EAST-CENTRAL ILLINOIS

CITY           SKY/WX    TMP DP  RH WIND       PRES   REMARKS
CHAMPAIGN      CLOUDY    19   7  59 W14       30.09R WCI   6
RANTOUL*       PTCLDY    20   9  60 W9        30.08R WCI  10
MATTOON        CLOUDY    19   5  54 W10       30.10R WCI   7
PARIS*         CLOUDY    19  10  67 W12       30.11R WCI   7
$$

ILZ079-100>102-110000-
SOUTHWEST ILLINOIS

CITY           SKY/WX    TMP DP  RH WIND       PRES   REMARKS
BELLEVILLE     FLURRIES  21  19  89 SW7       30.14S WCI  13
CAHOKIA*       LGT SNOW  22  16  78 S3        30.15S
SPARTA*        LGT SNOW  21  18  87 CALM      30.17R VSB 1
$$

ILZ064>066-069>071-074>076-080>082-084>086-088>090-092>094-110000-
SOUTH-CENTRAL ILLINOIS

CITY           SKY/WX    TMP DP  RH WIND       PRES   REMARKS
CARBONDALE     LGT SNOW  22  18  85 S3        30.17S VSB 3/4
CAIRO*         CLOUDY    23  21  91 CALM      30.18F
EFFINGHAM*     CLOUDY    22  10  61 SW12      30.15R WCI  10
MARION         CLOUDY    23  19  86 SW5       30.18R WCI  17
MT. VERNON     CLOUDY    19  12  73 SW3       30.17R
CENTRALIA*     LGT SNOW  21  18  89 SW8       30.15R WCI  11
SALEM*         LGT SNOW  21  17  84 SW6       30.15R WCI  13
METROPOLIS*    LGT SNOW  24  22  92 SW3       30.19S
$$

ILZ067-068-072-073-078-083-087-091-110000-
SOUTHEAST ILLINOIS

CITY           SKY/WX    TMP DP  RH WIND       PRES   REMARKS
LAWRENCEVILLE  CLOUDY    22   8  55 W10       30.14R WCI  11
FLORA*         LGT SNOW  22  16  77 W13       30.17R WCI  10
FAIRFIELD*     LGT SNOW  21  18  86 W3        30.16R
HARRISBURG*    LGT SNOW  21  18  86 W6        30.19R WCI  14
ROBINSON*      CLOUDY    21   8  59 W10       30.14R WCI   9
CARMI*         LGT SNOW  21  18  86 W9        30.17R WCI  11
$$

ABBREVIATIONS USED IN REMARKS
   TC - TEMPERATURE IN CELSIUS
  WCI - WIND CHILL INDEX
   HX - HEAT INDEX
  VSB - VISIBILITY
$$




USA.gov is the U.S. government's official web portal to all federal, state and local government web resources and services.